Time,TemperatureF,DewpointF,PressureIn,WindDirection,WindDirectionDegrees,WindSpeedMPH,WindSpeedGustMPH,Humidity,HourlyPrecipIn,Conditions,Clouds,dailyrainin,SoftwareType,DateUTC
2013-03-20 00:01:00,58.9,0.0,0.00,North,7,0.4,6.8,0,0.00,,,0.00,WUHU216PEETBRO,2013-03-20 05:01:00,
2013-03-20 00:06:00,59.2,0.0,0.00,North,359,5.3,6.8,0,0.00,,,0.00,WUHU216PEETBRO,2013-03-20 05:06:00,
2013-03-20 00:11:00,59.5,0.0,0.00,NE,42,3.5,8.6,0,0.00,,,0.00,WUHU216PEETBRO,2013-03-20 05:11:00,
2013-03-20 00:16:00,58.9,0.0,0.00,North,8,4.0,9.9,0,0.00,,,0.00,WUHU216PEETBRO,2013-03-20 05:16:00,
2013-03-20 00:21:00,58.6,0.0,0.00,North,4,2.2,9.9,0,0.00,,,0.00,WUHU216PEETBRO,2013-03-20 05:21:00,
2013-03-20 00:26:00,59.1,0.0,0.00,ENE,74,3.9,6.8,0,0.00,,,0.00,WUHU216PEETBRO,2013-03-20 05:26:00,
2013-03-20 00:31:00,59.1,0.0,0.00,ENE,77,3.2,8.7,0,0.00,,,0.00,WUHU216PEETBRO,2013-03-20 05:31:00,
2013-03-20 00:36:00,59.1,0.0,0.00,SE,142,2.2,8.7,0,0.00,,,0.00,WUHU216PEETBRO,2013-03-20 05:36:00,
2013-03-20 00:41:00,59.0,0.0,0.00,ENE,73,5.1,8.4,0,0.00,,,0.00,WUHU216PEETBRO,2013-03-20 05:41:00,
2013-03-20 00:46:00,59.1,0.0,0.00,NE,36,5.1,8.4,0,0.00,,,0.00,WUHU216PEETBRO,2013-03-20 05:46:00,
2013-03-20 00:51:00,58.3,0.0,0.00,East,95,2.7,9.3,0,0.00,,,0.00,WUHU216PEETBRO,2013-03-20 05:51:00,
2013-03-20 00:56:00,58.2,0.0,0.00,NNE,25,3.7,9.3,0,0.00,,,0.00,WUHU216PEETBRO,2013-03-20 05:56:00,
2013-03-20 01:01:00,58.3,0.0,0.00,ENE,73,8.0,9.4,0,0.00,,,0.00,WUHU216PEETBRO,2013-03-20 06:01:00,
2013-03-20 01:06:00,58.3,0.0,0.00,NE,50,5.2,9.4,0,0.00,,,0.00,WUHU216PEETBRO,2013-03-20 06:06:00,
2013-03-20 01:11:00,58.6,0.0,0.00,NNE,26,4.9,7.4,0,0.00,,,0.00,WUHU216PEETBRO,2013-03-20 06:11:00,
2013-03-20 01:16:00,57.8,0.0,0.00,ENE,64,2.4,9.3,0,0.00,,,0.00,WUHU216PEETBRO,2013-03-20 06:16:00,
2013-03-20 01:21:00,57.5,0.0,0.00,ESE,108,3.1,9.3,0,0.00,,,0.00,WUHU216PEETBRO,2013-03-20 06:21:00,
2013-03-20 01:26:00,57.8,0.0,0.00,North,5,4.7,9.5,0,0.00,,,0.00,WUHU216PEETBRO,2013-03-20 06:26:00,
2013-03-20 01:31:00,58.1,0.0,0.00,NNE,18,2.5,9.5,0,0.00,,,0.00,WUHU216PEETBRO,2013-03-20 06:31:00,
2013-03-20 01:36:00,57.5,0.0,0.00,NNE,22,1.6,8.8,0,0.00,,,0.00,WUHU216PEETBRO,2013-03-20 06:36:00,
2013-03-20 01:41:00,57.5,0.0,0.00,East,94,4.9,10.7,0,0.00,,,0.00,WUHU216PEETBRO,2013-03-20 06:41:00,
2013-03-20 01:46:00,57.5,0.0,0.00,NNE,19,9.3,12.6,0,0.00,,,0.00,WUHU216PEETBRO,2013-03-20 06:46:00,
2013-03-20 01:52:00,57.9,0.0,0.00,East,93,6.4,13.1,0,0.00,,,0.00,WUHU216PEETBRO,2013-03-20 06:52:00,
2013-03-20 01:57:00,57.8,0.0,0.00,NE,49,5.9,13.1,0,0.00,,,0.00,WUHU216PEETBRO,2013-03-20 06:57:00,
2013-03-20 02:02:00,58.1,0.0,0.00,NE,35,0.2,12.7,0,0.00,,,0.00,WUHU216PEETBRO,2013-03-20 07:02:00,
2013-03-20 02:07:00,57.5,0.0,0.00,North,355,2.7,10.4,0,0.00,,,0.00,WUHU216PEETBRO,2013-03-20 07:07:00,
2013-03-20 02:12:00,57.5,0.0,0.00,North,359,5.3,11.4,0,0.00,,,0.00,WUHU216PEETBRO,2013-03-20 07:12:00,
2013-03-20 02:17:00,57.8,0.0,0.00,NNE,18,5.3,11.4,0,0.00,,,0.00,WUHU216PEETBRO,2013-03-20 07:17:00,
2013-03-20 02:22:00,57.8,0.0,0.00,ENE,63,4.2,11.1,0,0.00,,,0.00,WUHU216PEETBRO,2013-03-20 07:22:00,
2013-03-20 02:27:00,57.8,0.0,0.00,ENE,59,3.3,9.1,0,0.00,,,0.00,WUHU216PEETBRO,2013-03-20 07:27:00,
2013-03-20 02:32:00,57.2,0.0,0.00,ENE,73,5.3,12.3,0,0.00,,,0.00,WUHU216PEETBRO,2013-03-20 07:32:00,
2013-03-20 02:37:00,57.7,0.0,0.00,NNE,12,13.9,13.9,0,0.00,,,0.00,WUHU216PEETBRO,2013-03-20 07:37:00,
2013-03-20 02:42:00,58.1,0.0,0.00,ENE,62,5.6,15.4,0,0.00,,,0.00,WUHU216PEETBRO,2013-03-20 07:42:00,
2013-03-20 02:47:00,58.1,0.0,0.00,North,4,8.6,15.4,0,0.00,,,0.00,WUHU216PEETBRO,2013-03-20 07:47:00,
2013-03-20 02:52:00,57.2,0.0,0.00,North,9,10.7,14.7,0,0.00,,,0.00,WUHU216PEETBRO,2013-03-20 07:52:00,
2013-03-20 02:57:00,57.5,0.0,0.00,NE,36,2.6,16.3,0,0.00,,,0.00,WUHU216PEETBRO,2013-03-20 07:57:00,
2013-03-20 03:02:00,57.5,0.0,0.00,North,359,6.2,16.3,0,0.00,,,0.00,WUHU216PEETBRO,2013-03-20 08:02:00,
2013-03-20 03:07:00,57.0,0.0,0.00,NW,316,11.4,12.7,0,0.00,,,0.00,WUHU216PEETBRO,2013-03-20 08:07:00,
2013-03-20 03:12:00,57.5,0.0,0.00,WNW,292,2.1,12.7,0,0.00,,,0.00,WUHU216PEETBRO,2013-03-20 08:12:00,
2013-03-20 03:17:00,57.0,0.0,0.00,North,357,4.8,11.4,0,0.00,,,0.00,WUHU216PEETBRO,2013-03-20 08:17:00,
2013-03-20 03:22:00,57.0,0.0,0.00,North,8,3.9,12.1,0,0.00,,,0.00,WUHU216PEETBRO,2013-03-20 08:22:00,
2013-03-20 03:27:00,56.7,0.0,0.00,North,352,3.9,12.1,0,0.00,,,0.00,WUHU216PEETBRO,2013-03-20 08:27:00,
2013-03-20 03:32:00,56.2,0.0,0.00,NNW,344,7.5,10.7,0,0.00,,,0.00,WUHU216PEETBRO,2013-03-20 08:32:00,
2013-03-20 03:37:00,57.0,0.0,0.00,NW,320,5.6,10.6,0,0.00,,,0.00,WUHU216PEETBRO,2013-03-20 08:37:00,
2013-03-20 03:42:00,57.2,0.0,0.00,North,359,8.5,11.6,0,0.00,,,0.00,WUHU216PEETBRO,2013-03-20 08:42:00,
2013-03-20 03:47:00,56.4,0.0,0.00,NNE,22,7.6,12.9,0,0.00,,,0.00,WUHU216PEETBRO,2013-03-20 08:47:00,
2013-03-20 03:52:00,54.2,0.0,0.00,North,359,9.3,12.9,0,0.00,,,0.00,WUHU216PEETBRO,2013-03-20 08:52:00,
2013-03-20 03:57:00,52.9,0.0,0.00,North,4,3.7,18.3,0,0.00,,,0.00,WUHU216PEETBRO,2013-03-20 08:57:00,
2013-03-20 04:02:00,52.7,0.0,0.00,North,4,9.2,18.3,0,0.00,,,0.00,WUHU216PEETBRO,2013-03-20 09:02:00,
2013-03-20 04:07:00,53.4,0.0,0.00,North,4,3.0,14.3,0,0.00,,,0.00,WUHU216PEETBRO,2013-03-20 09:07:00,
2013-03-20 04:12:00,53.2,0.0,0.00,North,359,5.6,10.1,0,0.00,,,0.00,WUHU216PEETBRO,2013-03-20 09:12:00,
2013-03-20 04:17:00,53.4,0.0,0.00,NNE,12,6.5,8.1,0,0.00,,,0.00,WUHU216PEETBRO,2013-03-20 09:17:00,
2013-03-20 04:22:00,53.4,0.0,0.00,North,350,6.0,7.5,0,0.00,,,0.00,WUHU216PEETBRO,2013-03-20 09:22:00,
2013-03-20 04:27:00,53.2,0.0,0.00,North,355,2.1,9.1,0,0.00,,,0.00,WUHU216PEETBRO,2013-03-20 09:27:00,
2013-03-20 04:32:00,53.4,0.0,0.00,NNW,333,1.5,9.1,0,0.00,,,0.00,WUHU216PEETBRO,2013-03-20 09:32:00,
2013-03-20 04:37:00,53.3,0.0,0.00,NW,320,3.0,7.6,0,0.00,,,0.00,WUHU216PEETBRO,2013-03-20 09:37:00,
2013-03-20 04:42:00,52.7,0.0,0.00,NNW,340,4.8,7.6,0,0.00,,,0.00,WUHU216PEETBRO,2013-03-20 09:42:00,
2013-03-20 04:47:00,52.7,0.0,0.00,NW,309,3.3,7.4,0,0.00,,,0.00,WUHU216PEETBRO,2013-03-20 09:47:00,
2013-03-20 04:52:00,51.1,0.0,0.00,NNW,341,2.4,7.3,0,0.01,,,0.01,WUHU216PEETBRO,2013-03-20 09:52:00,
2013-03-20 04:57:00,48.4,0.0,0.00,NE,53,0.0,7.3,0,0.02,,,0.02,WUHU216PEETBRO,2013-03-20 09:57:00,
2013-03-20 05:01:00,47.7,0.0,0.00,NE,53,0.0,3.5,0,0.03,,,0.03,WUHU216PEETBRO,2013-03-20 10:01:00,
2013-03-20 05:06:00,47.5,0.0,0.00,NE,53,0.0,0.0,0,0.03,,,0.03,WUHU216PEETBRO,2013-03-20 10:06:00,
2013-03-20 05:11:00,47.9,0.0,0.00,East,84,2.1,2.2,0,0.04,,,0.04,WUHU216PEETBRO,2013-03-20 10:11:00,
2013-03-20 05:16:00,47.9,0.0,0.00,SE,132,0.8,2.5,0,0.04,,,0.04,WUHU216PEETBRO,2013-03-20 10:16:00,
2013-03-20 05:21:00,48.0,0.0,0.00,ESE,115,0.0,2.7,0,0.05,,,0.05,WUHU216PEETBRO,2013-03-20 10:21:00,
2013-03-20 05:26:00,47.7,0.0,0.00,ESE,115,0.0,2.7,0,0.05,,,0.05,WUHU216PEETBRO,2013-03-20 10:26:00,
2013-03-20 05:31:00,48.2,0.0,0.00,NE,45,1.9,3.9,0,0.06,,,0.06,WUHU216PEETBRO,2013-03-20 10:31:00,
2013-03-20 05:36:00,47.7,0.0,0.00,NNE,19,0.0,3.9,0,0.06,,,0.06,WUHU216PEETBRO,2013-03-20 10:36:00,
2013-03-20 05:41:00,47.7,0.0,0.00,SE,129,2.1,3.9,0,0.07,,,0.07,WUHU216PEETBRO,2013-03-20 10:41:00,
2013-03-20 05:46:00,47.1,0.0,0.00,East,87,0.0,3.9,0,0.07,,,0.07,WUHU216PEETBRO,2013-03-20 10:46:00,
2013-03-20 05:51:00,47.2,0.0,0.00,SE,129,4.0,4.3,0,0.07,,,0.08,WUHU216PEETBRO,2013-03-20 10:51:00,
2013-03-20 05:56:00,47.1,0.0,0.00,ESE,107,4.9,8.1,0,0.06,,,0.08,WUHU216PEETBRO,2013-03-20 10:56:00,
2013-03-20 06:01:00,47.5,0.0,0.00,ESE,110,6.5,8.1,0,0.06,,,0.09,WUHU216PEETBRO,2013-03-20 11:01:00,
2013-03-20 06:06:00,47.5,0.0,0.00,West,275,0.9,7.1,0,0.06,,,0.09,WUHU216PEETBRO,2013-03-20 11:06:00,
2013-03-20 06:11:00,47.9,0.0,0.00,NNE,21,2.5,6.6,0,0.05,,,0.09,WUHU216PEETBRO,2013-03-20 11:11:00,
2013-03-20 06:16:00,47.5,0.0,0.00,East,94,1.3,4.7,0,0.05,,,0.09,WUHU216PEETBRO,2013-03-20 11:16:00,
2013-03-20 06:21:00,47.7,0.0,0.00,East,81,0.0,4.2,0,0.04,,,0.09,WUHU216PEETBRO,2013-03-20 11:21:00,
2013-03-20 06:26:00,47.7,0.0,0.00,East,84,0.0,2.2,0,0.04,,,0.09,WUHU216PEETBRO,2013-03-20 11:26:00,
2013-03-20 06:31:00,48.3,0.0,0.00,SSE,165,0.0,3.0,0,0.03,,,0.09,WUHU216PEETBRO,2013-03-20 11:31:00,
2013-03-20 06:36:00,47.9,0.0,0.00,East,95,0.4,3.0,0,0.03,,,0.09,WUHU216PEETBRO,2013-03-20 11:36:00,
2013-03-20 06:41:00,47.9,0.0,0.00,North,352,8.0,10.0,0,0.02,,,0.09,WUHU216PEETBRO,2013-03-20 11:41:00,
2013-03-20 06:46:00,47.7,0.0,0.00,North,354,6.3,12.5,0,0.02,,,0.09,WUHU216PEETBRO,2013-03-20 11:46:00,
2013-03-20 06:52:00,47.5,0.0,0.00,North,358,6.5,12.5,0,0.01,,,0.09,WUHU216PEETBRO,2013-03-20 11:52:00,
2013-03-20 06:57:00,47.5,0.0,0.00,North,4,6.0,10.4,0,0.01,,,0.09,WUHU216PEETBRO,2013-03-20 11:57:00,
2013-03-20 07:02:00,47.5,0.0,0.00,NE,38,5.8,11.0,0,0.00,,,0.09,WUHU216PEETBRO,2013-03-20 12:02:00,
2013-03-20 07:07:00,47.9,0.0,0.00,NNE,15,3.4,11.0,0,0.00,,,0.09,WUHU216PEETBRO,2013-03-20 12:07:00,
2013-03-20 07:12:00,47.7,0.0,0.00,North,5,9.4,9.4,0,0.00,,,0.09,WUHU216PEETBRO,2013-03-20 12:12:00,
2013-03-20 07:17:00,47.2,0.0,0.00,NNE,25,5.6,9.4,0,0.00,,,0.09,WUHU216PEETBRO,2013-03-20 12:17:00,
2013-03-20 07:21:00,47.7,0.0,0.00,NNE,21,5.4,10.7,0,0.00,,,0.09,WUHU216PEETBRO,2013-03-20 12:21:00,
2013-03-20 07:27:00,47.2,0.0,0.00,ENE,57,3.0,10.7,0,0.00,,,0.09,WUHU216PEETBRO,2013-03-20 12:27:00,
2013-03-20 07:32:00,47.7,0.0,0.00,NNE,26,5.7,9.8,0,0.00,,,0.09,WUHU216PEETBRO,2013-03-20 12:32:00,
2013-03-20 07:36:00,47.0,0.0,0.00,North,1,6.2,8.5,0,0.00,,,0.09,WUHU216PEETBRO,2013-03-20 12:36:00,
2013-03-20 07:41:00,47.0,0.0,0.00,North,359,3.5,9.7,0,0.00,,,0.09,WUHU216PEETBRO,2013-03-20 12:41:00,
2013-03-20 07:46:00,46.8,0.0,0.00,North,359,4.7,9.7,0,0.00,,,0.09,WUHU216PEETBRO,2013-03-20 12:46:00,
2013-03-20 07:52:00,46.8,0.0,0.00,NE,47,2.1,7.8,0,0.00,,,0.09,WUHU216PEETBRO,2013-03-20 12:52:00,
2013-03-20 07:57:00,46.8,0.0,0.00,NE,35,2.6,4.0,0,0.00,,,0.09,WUHU216PEETBRO,2013-03-20 12:57:00,
2013-03-20 08:03:00,46.8,0.0,0.00,NNE,28,2.4,2.6,0,0.00,,,0.09,WUHU216PEETBRO,2013-03-20 13:03:00,
2013-03-20 08:08:00,47.5,0.0,0.00,North,5,2.0,6.6,0,0.00,,,0.09,WUHU216PEETBRO,2013-03-20 13:08:00,
2013-03-20 08:13:00,47.7,0.0,0.00,NNW,347,5.3,7.4,0,0.00,,,0.09,WUHU216PEETBRO,2013-03-20 13:13:00,
2013-03-20 08:18:00,47.2,0.0,0.00,North,359,3.0,7.4,0,0.00,,,0.09,WUHU216PEETBRO,2013-03-20 13:18:00,
2013-03-20 08:23:00,47.0,0.0,0.00,NNE,29,0.0,6.6,0,0.00,,,0.09,WUHU216PEETBRO,2013-03-20 13:23:00,
2013-03-20 08:28:00,47.7,0.0,0.00,NW,326,0.8,6.3,0,0.00,,,0.09,WUHU216PEETBRO,2013-03-20 13:28:00,
2013-03-20 08:33:00,47.2,0.0,0.00,NNW,347,3.0,4.5,0,0.00,,,0.09,WUHU216PEETBRO,2013-03-20 13:33:00,
2013-03-20 08:38:00,47.9,0.0,0.00,NNE,12,0.0,4.5,0,0.00,,,0.09,WUHU216PEETBRO,2013-03-20 13:38:00,
2013-03-20 08:43:00,47.9,0.0,0.00,North,354,2.4,4.2,0,0.00,,,0.09,WUHU216PEETBRO,2013-03-20 13:43:00,
2013-03-20 08:48:00,48.2,0.0,0.00,North,0,0.0,3.8,0,0.00,,,0.09,WUHU216PEETBRO,2013-03-20 13:48:00,
2013-03-20 08:53:00,48.2,0.0,0.00,NNE,19,0.0,3.8,0,0.00,,,0.09,WUHU216PEETBRO,2013-03-20 13:53:00,
2013-03-20 08:58:00,48.2,0.0,0.00,North,2,1.3,3.5,0,0.00,,,0.09,WUHU216PEETBRO,2013-03-20 13:58:00,
2013-03-20 09:03:00,48.4,0.0,0.00,North,2,0.0,3.0,0,0.00,,,0.09,WUHU216PEETBRO,2013-03-20 14:03:00,
2013-03-20 09:08:00,49.2,0.0,0.00,NNE,33,0.0,4.6,0,0.00,,,0.09,WUHU216PEETBRO,2013-03-20 14:08:00,
2013-03-20 09:13:00,49.8,0.0,0.00,NNE,16,2.4,4.6,0,0.00,,,0.09,WUHU216PEETBRO,2013-03-20 14:13:00,
2013-03-20 09:18:00,50.1,0.0,0.00,NNW,333,1.6,3.5,0,0.00,,,0.09,WUHU216PEETBRO,2013-03-20 14:18:00,
2013-03-20 09:23:00,50.1,0.0,0.00,NNW,337,0.0,5.0,0,0.00,,,0.09,WUHU216PEETBRO,2013-03-20 14:23:00,
2013-03-20 09:28:00,51.1,0.0,0.00,NNW,343,1.2,6.3,0,0.00,,,0.09,WUHU216PEETBRO,2013-03-20 14:28:00,
2013-03-20 09:33:00,51.0,0.0,0.00,NNW,328,2.2,6.3,0,0.00,,,0.09,WUHU216PEETBRO,2013-03-20 14:33:00,
2013-03-20 09:38:00,52.2,0.0,0.00,North,9,0.0,4.2,0,0.00,,,0.09,WUHU216PEETBRO,2013-03-20 14:38:00,
2013-03-20 09:43:00,52.4,0.0,0.00,North,357,0.7,6.3,0,0.00,,,0.09,WUHU216PEETBRO,2013-03-20 14:43:00,
2013-03-20 09:48:00,52.8,0.0,0.00,NNE,18,0.9,6.3,0,0.00,,,0.09,WUHU216PEETBRO,2013-03-20 14:48:00,
2013-03-20 09:53:00,53.5,0.0,0.00,North,358,0.0,4.5,0,0.00,,,0.09,WUHU216PEETBRO,2013-03-20 14:53:00,
2013-03-20 09:58:00,54.3,0.0,0.00,NNW,330,0.0,4.5,0,0.00,,,0.09,WUHU216PEETBRO,2013-03-20 14:58:00,
2013-03-20 10:03:00,55.7,0.0,0.00,NNE,23,1.9,4.1,0,0.00,,,0.09,WUHU216PEETBRO,2013-03-20 15:03:00,
2013-03-20 10:08:00,57.4,0.0,0.00,North,1,4.5,5.0,0,0.00,,,0.09,WUHU216PEETBRO,2013-03-20 15:08:00,
2013-03-20 10:13:00,57.0,0.0,0.00,NE,38,3.4,5.4,0,0.00,,,0.09,WUHU216PEETBRO,2013-03-20 15:13:00,
2013-03-20 10:18:00,56.3,0.0,0.00,NNE,29,2.7,7.1,0,0.00,,,0.09,WUHU216PEETBRO,2013-03-20 15:18:00,
2013-03-20 10:23:00,55.7,0.0,0.00,ENE,74,2.1,7.1,0,0.00,,,0.09,WUHU216PEETBRO,2013-03-20 15:23:00,
2013-03-20 10:28:00,57.4,0.0,0.00,North,7,2.7,7.1,0,0.00,,,0.09,WUHU216PEETBRO,2013-03-20 15:28:00,
2013-03-20 10:33:00,57.6,0.0,0.00,NNE,19,2.2,7.1,0,0.00,,,0.09,WUHU216PEETBRO,2013-03-20 15:33:00,
2013-03-20 10:38:00,56.2,0.0,0.00,NE,43,2.2,6.2,0,0.00,,,0.09,WUHU216PEETBRO,2013-03-20 15:38:00,
2013-03-20 10:44:00,67.0,0.0,0.00,NNE,26,0.9,5.3,0,0.00,,,0.09,WUHU216PEETBRO,2013-03-20 15:44:00,
2013-03-20 10:48:00,69.3,0.0,0.00,NNW,331,3.0,5.3,0,0.00,,,0.09,WUHU216PEETBRO,2013-03-20 15:48:00,
2013-03-20 10:53:00,66.1,0.0,0.00,ENE,74,2.7,8.0,0,0.00,,,0.09,WUHU216PEETBRO,2013-03-20 15:53:00,
2013-03-20 10:58:00,67.3,0.0,0.00,East,93,1.6,8.0,0,0.00,,,0.09,WUHU216PEETBRO,2013-03-20 15:58:00,
2013-03-20 11:03:00,69.0,0.0,0.00,ENE,77,2.3,7.6,0,0.00,,,0.09,WUHU216PEETBRO,2013-03-20 16:03:00,
2013-03-20 11:08:00,72.3,0.0,0.00,NNE,15,4.4,7.6,0,0.00,,,0.09,WUHU216PEETBRO,2013-03-20 16:08:00,
2013-03-20 11:13:00,69.3,0.0,0.00,NNE,25,0.5,7.0,0,0.00,,,0.09,WUHU216PEETBRO,2013-03-20 16:13:00,
2013-03-20 11:18:00,66.1,0.0,0.00,SE,125,1.9,7.0,0,0.00,,,0.09,WUHU216PEETBRO,2013-03-20 16:18:00,
2013-03-20 11:23:00,72.6,0.0,0.00,NNE,25,4.8,6.3,0,0.00,,,0.09,WUHU216PEETBRO,2013-03-20 16:23:00,
2013-03-20 11:28:00,72.6,0.0,0.00,NNE,21,4.4,7.3,0,0.00,,,0.09,WUHU216PEETBRO,2013-03-20 16:28:00,
2013-03-20 11:33:00,74.9,0.0,0.00,North,358,4.3,7.8,0,0.00,,,0.09,WUHU216PEETBRO,2013-03-20 16:33:00,
2013-03-20 11:38:00,72.3,0.0,0.00,NNE,12,3.0,8.2,0,0.00,,,0.09,WUHU216PEETBRO,2013-03-20 16:38:00,
2013-03-20 11:43:00,68.7,0.0,0.00,East,91,4.2,10.3,0,0.00,,,0.09,WUHU216PEETBRO,2013-03-20 16:43:00,
2013-03-20 11:49:00,71.7,0.0,0.00,NNE,29,2.1,10.3,0,0.00,,,0.09,WUHU216PEETBRO,2013-03-20 16:49:00,
2013-03-20 11:53:00,75.9,0.0,0.00,NNE,15,4.5,8.8,0,0.00,,,0.09,WUHU216PEETBRO,2013-03-20 16:53:00,
2013-03-20 11:58:00,74.2,0.0,0.00,NW,316,0.7,8.8,0,0.00,,,0.09,WUHU216PEETBRO,2013-03-20 16:58:00,
2013-03-20 12:03:00,75.9,0.0,0.00,North,352,6.2,8.7,0,0.00,,,0.09,WUHU216PEETBRO,2013-03-20 17:03:00,
2013-03-20 12:08:00,75.2,0.0,0.00,NW,304,5.2,10.7,0,0.00,,,0.09,WUHU216PEETBRO,2013-03-20 17:08:00,
2013-03-20 12:13:00,75.2,0.0,0.00,North,352,6.3,10.7,0,0.00,,,0.09,WUHU216PEETBRO,2013-03-20 17:13:00,
2013-03-20 12:18:00,74.2,0.0,0.00,NNE,23,6.5,10.1,0,0.00,,,0.09,WUHU216PEETBRO,2013-03-20 17:18:00,
2013-03-20 12:23:00,75.2,0.0,0.00,East,95,4.1,11.2,0,0.00,,,0.09,WUHU216PEETBRO,2013-03-20 17:23:00,
2013-03-20 12:28:00,75.8,0.0,0.00,ESE,111,3.5,11.3,0,0.00,,,0.09,WUHU216PEETBRO,2013-03-20 17:28:00,
2013-03-20 12:33:00,73.6,0.0,0.00,NNE,21,8.3,14.9,0,0.00,,,0.09,WUHU216PEETBRO,2013-03-20 17:33:00,
2013-03-20 12:38:00,69.9,0.0,0.00,ENE,76,4.1,14.9,0,0.00,,,0.09,WUHU216PEETBRO,2013-03-20 17:38:00,
2013-03-20 12:43:00,73.8,0.0,0.00,ENE,60,0.7,15.8,0,0.00,,,0.09,WUHU216PEETBRO,2013-03-20 17:43:00,
2013-03-20 12:48:00,71.1,0.0,0.00,East,101,4.1,15.8,0,0.00,,,0.09,WUHU216PEETBRO,2013-03-20 17:48:00,
2013-03-20 12:53:00,71.7,0.0,0.00,NNE,31,2.9,16.1,0,0.00,,,0.09,WUHU216PEETBRO,2013-03-20 17:53:00,
2013-03-20 12:58:00,75.5,0.0,0.00,NNE,28,4.9,16.1,0,0.00,,,0.09,WUHU216PEETBRO,2013-03-20 17:58:00,
2013-03-20 13:04:00,75.2,0.0,0.00,NNE,14,7.6,14.0,0,0.00,,,0.09,WUHU216PEETBRO,2013-03-20 18:04:00,
2013-03-20 13:08:00,73.6,0.0,0.00,East,83,8.6,14.4,0,0.00,,,0.09,WUHU216PEETBRO,2013-03-20 18:08:00,
2013-03-20 13:13:00,72.0,0.0,0.00,East,84,14.1,16.0,0,0.00,,,0.09,WUHU216PEETBRO,2013-03-20 18:13:00,
2013-03-20 13:18:00,73.1,0.0,0.00,North,359,2.9,16.0,0,0.00,,,0.09,WUHU216PEETBRO,2013-03-20 18:18:00,
2013-03-20 13:23:00,75.9,0.0,0.00,ENE,60,11.0,15.6,0,0.00,,,0.09,WUHU216PEETBRO,2013-03-20 18:23:00,
2013-03-20 13:28:00,73.3,0.0,0.00,East,91,5.7,14.1,0,0.00,,,0.09,WUHU216PEETBRO,2013-03-20 18:28:00,
2013-03-20 13:33:00,73.6,0.0,0.00,SSE,151,4.7,16.8,0,0.00,,,0.09,WUHU216PEETBRO,2013-03-20 18:33:00,
2013-03-20 13:38:00,77.9,0.0,0.00,NNW,334,7.3,16.8,0,0.00,,,0.09,WUHU216PEETBRO,2013-03-20 18:38:00,
2013-03-20 13:43:00,74.9,0.0,0.00,NE,42,8.1,12.8,0,0.00,,,0.09,WUHU216PEETBRO,2013-03-20 18:43:00,
2013-03-20 13:48:00,77.1,0.0,0.00,North,8,5.6,15.3,0,0.00,,,0.09,WUHU216PEETBRO,2013-03-20 18:48:00,
2013-03-20 13:53:00,79.2,0.0,0.00,North,359,3.4,15.3,0,0.00,,,0.09,WUHU216PEETBRO,2013-03-20 18:53:00,
2013-03-20 13:58:00,77.1,0.0,0.00,NNW,345,6.0,12.9,0,0.00,,,0.09,WUHU216PEETBRO,2013-03-20 18:58:00,
2013-03-20 14:03:00,78.4,0.0,0.00,North,359,3.2,13.2,0,0.00,,,0.09,WUHU216PEETBRO,2013-03-20 19:03:00,
2013-03-20 14:08:00,78.1,0.0,0.00,North,1,6.4,13.2,0,0.00,,,0.09,WUHU216PEETBRO,2013-03-20 19:08:00,
2013-03-20 14:13:00,75.5,0.0,0.00,North,359,9.3,12.1,0,0.00,,,0.09,WUHU216PEETBRO,2013-03-20 19:13:00,
2013-03-20 14:18:00,73.3,0.0,0.00,ENE,76,3.4,13.7,0,0.00,,,0.09,WUHU216PEETBRO,2013-03-20 19:18:00,
2013-03-20 14:23:00,72.8,0.0,0.00,North,9,5.0,13.7,0,0.00,,,0.09,WUHU216PEETBRO,2013-03-20 19:23:00,
2013-03-20 14:28:00,76.5,0.0,0.00,NE,47,1.7,13.0,0,0.00,,,0.09,WUHU216PEETBRO,2013-03-20 19:28:00,
2013-03-20 14:33:00,76.3,0.0,0.00,NE,39,9.9,9.9,0,0.00,,,0.09,WUHU216PEETBRO,2013-03-20 19:33:00,
2013-03-20 14:38:00,78.4,0.0,0.00,NNW,341,4.1,19.0,0,0.00,,,0.09,WUHU216PEETBRO,2013-03-20 19:38:00,
2013-03-20 14:43:00,78.1,0.0,0.00,NE,52,6.2,19.0,0,0.00,,,0.09,WUHU216PEETBRO,2013-03-20 19:43:00,
2013-03-20 14:48:00,79.9,0.0,0.00,NNE,18,0.0,10.3,0,0.00,,,0.09,WUHU216PEETBRO,2013-03-20 19:48:00,
2013-03-20 14:53:00,82.1,0.0,0.00,NNW,344,4.5,10.7,0,0.00,,,0.09,WUHU216PEETBRO,2013-03-20 19:53:00,
2013-03-20 14:58:00,78.4,0.0,0.00,NNW,348,7.0,14.0,0,0.00,,,0.09,WUHU216PEETBRO,2013-03-20 19:58:00,
2013-03-20 15:03:00,77.9,0.0,0.00,ENE,60,2.5,14.0,0,0.00,,,0.09,WUHU216PEETBRO,2013-03-20 20:03:00,
2013-03-20 15:08:00,81.4,0.0,0.00,WNW,290,12.2,12.2,0,0.00,,,0.09,WUHU216PEETBRO,2013-03-20 20:08:00,
2013-03-20 15:13:00,81.0,0.0,0.00,North,5,0.9,13.9,0,0.00,,,0.09,WUHU216PEETBRO,2013-03-20 20:13:00,
2013-03-20 15:18:00,82.1,0.0,0.00,NNE,18,4.7,13.9,0,0.00,,,0.09,WUHU216PEETBRO,2013-03-20 20:18:00,
2013-03-20 15:23:00,78.4,0.0,0.00,North,5,5.9,14.0,0,0.00,,,0.09,WUHU216PEETBRO,2013-03-20 20:23:00,
2013-03-20 15:28:00,81.4,0.0,0.00,NNE,31,9.4,14.2,0,0.00,,,0.09,WUHU216PEETBRO,2013-03-20 20:28:00,
2013-03-20 15:33:00,78.4,0.0,0.00,ENE,64,10.4,14.2,0,0.00,,,0.09,WUHU216PEETBRO,2013-03-20 20:33:00,
2013-03-20 15:38:00,78.4,0.0,0.00,NE,43,8.9,15.8,0,0.00,,,0.09,WUHU216PEETBRO,2013-03-20 20:38:00,
2013-03-20 15:43:00,77.9,0.0,0.00,NNW,327,9.1,17.2,0,0.00,,,0.09,WUHU216PEETBRO,2013-03-20 20:43:00,
2013-03-20 15:48:00,76.8,0.0,0.00,NNE,16,15.7,17.2,0,0.00,,,0.09,WUHU216PEETBRO,2013-03-20 20:48:00,
2013-03-20 15:53:00,78.4,0.0,0.00,North,359,8.0,16.6,0,0.00,,,0.09,WUHU216PEETBRO,2013-03-20 20:53:00,
2013-03-20 15:58:00,78.4,0.0,0.00,North,352,9.6,16.0,0,0.00,,,0.09,WUHU216PEETBRO,2013-03-20 20:58:00,
2013-03-20 16:03:00,79.2,0.0,0.00,North,354,6.3,13.9,0,0.00,,,0.09,WUHU216PEETBRO,2013-03-20 21:03:00,
2013-03-20 16:08:00,80.2,0.0,0.00,NE,56,5.3,13.9,0,0.00,,,0.09,WUHU216PEETBRO,2013-03-20 21:08:00,
2013-03-20 16:13:00,75.9,0.0,0.00,East,100,6.8,15.5,0,0.00,,,0.09,WUHU216PEETBRO,2013-03-20 21:13:00,
2013-03-20 16:18:00,79.9,0.0,0.00,ENE,77,4.5,15.5,0,0.00,,,0.09,WUHU216PEETBRO,2013-03-20 21:18:00,
2013-03-20 16:23:00,78.9,0.0,0.00,NNW,337,9.4,11.7,0,0.00,,,0.09,WUHU216PEETBRO,2013-03-20 21:23:00,
2013-03-20 16:28:00,80.4,0.0,0.00,North,352,11.6,12.7,0,0.00,,,0.09,WUHU216PEETBRO,2013-03-20 21:28:00,
2013-03-20 16:33:00,80.6,0.0,0.00,North,351,7.5,12.7,0,0.00,,,0.09,WUHU216PEETBRO,2013-03-20 21:33:00,
2013-03-20 16:38:00,81.7,0.0,0.00,North,359,4.2,10.8,0,0.00,,,0.09,WUHU216PEETBRO,2013-03-20 21:38:00,
2013-03-20 16:43:00,81.7,0.0,0.00,NNW,347,3.3,10.6,0,0.00,,,0.09,WUHU216PEETBRO,2013-03-20 21:43:00,
2013-03-20 16:48:00,77.4,0.0,0.00,NE,43,3.2,12.7,0,0.00,,,0.09,WUHU216PEETBRO,2013-03-20 21:48:00,
2013-03-20 16:53:00,77.9,0.0,0.00,North,5,9.9,13.2,0,0.00,,,0.09,WUHU216PEETBRO,2013-03-20 21:53:00,
2013-03-20 16:58:00,78.4,0.0,0.00,North,355,7.9,13.2,0,0.00,,,0.09,WUHU216PEETBRO,2013-03-20 21:58:00,
2013-03-20 17:04:00,78.7,0.0,0.00,NW,319,9.3,12.4,0,0.00,,,0.09,WUHU216PEETBRO,2013-03-20 22:04:00,
2013-03-20 17:08:00,76.8,0.0,0.00,NW,321,8.9,14.7,0,0.00,,,0.09,WUHU216PEETBRO,2013-03-20 22:08:00,
2013-03-20 17:13:00,79.9,0.0,0.00,North,0,4.5,14.7,0,0.00,,,0.09,WUHU216PEETBRO,2013-03-20 22:13:00,
2013-03-20 17:18:00,76.7,0.0,0.00,East,81,3.4,12.4,0,0.00,,,0.09,WUHU216PEETBRO,2013-03-20 22:18:00,
2013-03-20 17:23:00,76.9,0.0,0.00,NNE,23,9.6,12.4,0,0.00,,,0.09,WUHU216PEETBRO,2013-03-20 22:23:00,
2013-03-20 17:28:00,76.5,0.0,0.00,North,352,8.6,12.7,0,0.00,,,0.09,WUHU216PEETBRO,2013-03-20 22:28:00,
2013-03-20 17:33:00,74.6,0.0,0.00,North,2,10.1,13.8,0,0.00,,,0.09,WUHU216PEETBRO,2013-03-20 22:33:00,
2013-03-20 17:38:00,73.6,0.0,0.00,NE,52,5.3,15.8,0,0.00,,,0.09,WUHU216PEETBRO,2013-03-20 22:38:00,
2013-03-20 17:43:00,75.2,0.0,0.00,North,359,3.3,15.8,0,0.00,,,0.09,WUHU216PEETBRO,2013-03-20 22:43:00,
2013-03-20 17:48:00,73.6,0.0,0.00,North,7,10.5,14.0,0,0.00,,,0.09,WUHU216PEETBRO,2013-03-20 22:48:00,
2013-03-20 17:54:00,72.3,0.0,0.00,North,2,12.9,12.9,0,0.00,,,0.09,WUHU216PEETBRO,2013-03-20 22:54:00,
2013-03-20 17:59:00,73.9,0.0,0.00,North,357,7.0,12.9,0,0.00,,,0.09,WUHU216PEETBRO,2013-03-20 22:59:00,
2013-03-20 18:04:00,73.3,0.0,0.00,North,359,5.1,12.6,0,0.00,,,0.09,WUHU216PEETBRO,2013-03-20 23:04:00,
2013-03-20 18:09:00,72.0,0.0,0.00,North,2,6.8,12.6,0,0.00,,,0.09,WUHU216PEETBRO,2013-03-20 23:09:00,
2013-03-20 18:14:00,70.5,0.0,0.00,North,9,6.8,11.2,0,0.00,,,0.09,WUHU216PEETBRO,2013-03-20 23:14:00,
2013-03-20 18:19:00,69.0,0.0,0.00,NNE,16,3.2,11.2,0,0.00,,,0.09,WUHU216PEETBRO,2013-03-20 23:19:00,
2013-03-20 18:24:00,68.7,0.0,0.00,NNE,26,6.7,11.1,0,0.00,,,0.09,WUHU216PEETBRO,2013-03-20 23:24:00,
2013-03-20 18:29:00,68.4,0.0,0.00,North,8,6.3,11.1,0,0.00,,,0.09,WUHU216PEETBRO,2013-03-20 23:29:00,
2013-03-20 18:34:00,68.2,0.0,0.00,ENE,62,9.4,10.4,0,0.00,,,0.09,WUHU216PEETBRO,2013-03-20 23:34:00,
2013-03-20 18:39:00,67.8,0.0,0.00,North,4,7.2,10.6,0,0.00,,,0.09,WUHU216PEETBRO,2013-03-20 23:39:00,
2013-03-20 18:44:00,67.8,0.0,0.00,North,5,2.5,10.6,0,0.00,,,0.09,WUHU216PEETBRO,2013-03-20 23:44:00,
2013-03-20 18:49:00,67.0,0.0,0.00,North,352,4.2,9.8,0,0.00,,,0.09,WUHU216PEETBRO,2013-03-20 23:49:00,
2013-03-20 18:54:00,65.9,0.0,0.00,NNE,14,7.1,10.4,0,0.00,,,0.09,WUHU216PEETBRO,2013-03-20 23:54:00,
2013-03-20 18:59:00,64.2,0.0,0.00,NE,52,4.0,10.4,0,0.00,,,0.09,WUHU216PEETBRO,2013-03-20 23:59:00,
2013-03-20 19:04:00,64.3,0.0,0.00,NNE,21,4.7,9.9,0,0.00,,,0.09,WUHU216PEETBRO,2013-03-21 00:04:00,
2013-03-20 19:09:00,63.3,0.0,0.00,NNE,21,2.9,8.9,0,0.00,,,0.09,WUHU216PEETBRO,2013-03-21 00:09:00,
2013-03-20 19:14:00,63.0,0.0,0.00,NE,39,1.6,7.8,0,0.00,,,0.09,WUHU216PEETBRO,2013-03-21 00:14:00,
2013-03-20 19:19:00,62.0,0.0,0.00,ENE,77,0.0,5.5,0,0.00,,,0.09,WUHU216PEETBRO,2013-03-21 00:19:00,
2013-03-20 19:24:00,61.2,0.0,0.00,NNE,14,0.0,3.4,0,0.00,,,0.09,WUHU216PEETBRO,2013-03-21 00:24:00,
2013-03-20 19:28:00,60.0,0.0,0.00,NNE,14,0.0,3.4,0,0.00,,,0.09,WUHU216PEETBRO,2013-03-21 00:28:00,
2013-03-20 19:34:00,58.8,0.0,0.00,NNE,14,0.0,0.0,0,0.00,,,0.09,WUHU216PEETBRO,2013-03-21 00:34:00,
2013-03-20 19:39:00,57.8,0.0,0.00,NNW,337,0.0,1.0,0,0.00,,,0.09,WUHU216PEETBRO,2013-03-21 00:39:00,
2013-03-20 19:44:00,57.2,0.0,0.00,NNW,337,0.0,1.0,0,0.00,,,0.09,WUHU216PEETBRO,2013-03-21 00:44:00,
2013-03-20 19:49:00,56.8,0.0,0.00,NNW,337,0.0,0.0,0,0.00,,,0.09,WUHU216PEETBRO,2013-03-21 00:49:00,
2013-03-20 19:54:00,56.4,0.0,0.00,NNW,337,0.0,0.0,0,0.00,,,0.09,WUHU216PEETBRO,2013-03-21 00:54:00,
2013-03-20 19:59:00,54.8,0.0,0.00,NNW,337,0.0,0.0,0,0.00,,,0.09,WUHU216PEETBRO,2013-03-21 00:59:00,
2013-03-20 20:04:00,53.6,0.0,0.00,NNW,337,0.0,0.0,0,0.00,,,0.09,WUHU216PEETBRO,2013-03-21 01:04:00,
2013-03-20 20:09:00,53.5,0.0,0.00,NNW,337,0.0,0.0,0,0.00,,,0.09,WUHU216PEETBRO,2013-03-21 01:09:00,
2013-03-20 20:13:00,53.9,0.0,0.00,NNW,337,0.0,0.0,0,0.00,,,0.09,WUHU216PEETBRO,2013-03-21 01:13:00,
2013-03-20 20:18:00,54.2,0.0,0.00,NNW,337,0.0,0.0,0,0.00,,,0.09,WUHU216PEETBRO,2013-03-21 01:18:00,
2013-03-20 20:23:00,52.7,0.0,0.00,NNW,337,0.0,0.0,0,0.00,,,0.09,WUHU216PEETBRO,2013-03-21 01:23:00,
2013-03-20 20:28:00,52.2,0.0,0.00,NNW,337,0.0,0.0,0,0.00,,,0.09,WUHU216PEETBRO,2013-03-21 01:28:00,
2013-03-20 20:34:00,51.9,0.0,0.00,NNW,337,0.0,0.0,0,0.00,,,0.09,WUHU216PEETBRO,2013-03-21 01:34:00,
2013-03-20 20:39:00,52.1,0.0,0.00,NNW,337,0.0,0.0,0,0.00,,,0.09,WUHU216PEETBRO,2013-03-21 01:39:00,
2013-03-20 20:44:00,51.4,0.0,0.00,NNW,337,0.0,0.0,0,0.00,,,0.09,WUHU216PEETBRO,2013-03-21 01:44:00,
2013-03-20 20:49:00,50.5,0.0,0.00,NNW,337,0.0,0.0,0,0.00,,,0.09,WUHU216PEETBRO,2013-03-21 01:49:00,
2013-03-20 20:54:00,50.5,0.0,0.00,NNW,337,0.0,0.0,0,0.00,,,0.09,WUHU216PEETBRO,2013-03-21 01:54:00,
2013-03-20 20:59:00,50.5,0.0,0.00,NNW,337,0.0,0.0,0,0.00,,,0.09,WUHU216PEETBRO,2013-03-21 01:59:00,
2013-03-20 21:04:00,50.2,0.0,0.00,NNW,337,0.0,0.0,0,0.00,,,0.09,WUHU216PEETBRO,2013-03-21 02:04:00,
2013-03-20 21:09:00,48.7,0.0,0.00,NNW,337,0.0,0.0,0,0.00,,,0.09,WUHU216PEETBRO,2013-03-21 02:09:00,
2013-03-20 21:14:00,48.9,0.0,0.00,NNW,337,0.0,0.0,0,0.00,,,0.09,WUHU216PEETBRO,2013-03-21 02:14:00,
2013-03-20 21:19:00,48.7,0.0,0.00,NNW,337,0.0,0.0,0,0.00,,,0.09,WUHU216PEETBRO,2013-03-21 02:19:00,
2013-03-20 21:24:00,48.7,0.0,0.00,NNW,337,0.0,0.0,0,0.00,,,0.09,WUHU216PEETBRO,2013-03-21 02:24:00,
2013-03-20 21:29:00,48.2,0.0,0.00,NNW,337,0.0,0.0,0,0.00,,,0.09,WUHU216PEETBRO,2013-03-21 02:29:00,
2013-03-20 21:34:00,47.5,0.0,0.00,NNW,337,0.0,0.0,0,0.00,,,0.09,WUHU216PEETBRO,2013-03-21 02:34:00,
2013-03-20 21:39:00,48.2,0.0,0.00,NNW,337,0.0,0.0,0,0.00,,,0.09,WUHU216PEETBRO,2013-03-21 02:39:00,
2013-03-20 21:44:00,47.8,0.0,0.00,NNW,337,0.0,0.0,0,0.00,,,0.09,WUHU216PEETBRO,2013-03-21 02:44:00,
2013-03-20 21:49:00,47.4,0.0,0.00,NNW,337,0.0,0.0,0,0.00,,,0.09,WUHU216PEETBRO,2013-03-21 02:49:00,
2013-03-20 21:54:00,47.1,0.0,0.00,NNW,337,0.0,0.0,0,0.00,,,0.09,WUHU216PEETBRO,2013-03-21 02:54:00,
2013-03-20 21:59:00,46.7,0.0,0.00,NNW,337,0.0,0.0,0,0.00,,,0.09,WUHU216PEETBRO,2013-03-21 02:59:00,
2013-03-20 22:04:00,46.7,0.0,0.00,NNW,337,0.0,0.0,0,0.00,,,0.09,WUHU216PEETBRO,2013-03-21 03:04:00,
2013-03-20 22:09:00,45.9,0.0,0.00,NNW,337,0.0,0.0,0,0.00,,,0.09,WUHU216PEETBRO,2013-03-21 03:09:00,
2013-03-20 22:14:00,46.5,0.0,0.00,NNW,337,0.0,0.0,0,0.00,,,0.09,WUHU216PEETBRO,2013-03-21 03:14:00,
2013-03-20 22:19:00,46.1,0.0,0.00,NNW,337,0.0,0.0,0,0.00,,,0.09,WUHU216PEETBRO,2013-03-21 03:19:00,
2013-03-20 22:24:00,45.4,0.0,0.00,NNW,337,0.0,0.0,0,0.00,,,0.09,WUHU216PEETBRO,2013-03-21 03:24:00,
2013-03-20 22:29:00,45.6,0.0,0.00,NNW,337,0.0,0.0,0,0.00,,,0.09,WUHU216PEETBRO,2013-03-21 03:29:00,
2013-03-20 22:34:00,45.0,0.0,0.00,NNW,337,0.0,0.0,0,0.00,,,0.09,WUHU216PEETBRO,2013-03-21 03:34:00,
2013-03-20 22:39:00,45.6,0.0,0.00,NNW,337,0.0,0.0,0,0.00,,,0.09,WUHU216PEETBRO,2013-03-21 03:39:00,
2013-03-20 22:44:00,45.6,0.0,0.00,NNW,337,0.0,0.0,0,0.00,,,0.09,WUHU216PEETBRO,2013-03-21 03:44:00,
2013-03-20 22:49:00,46.4,0.0,0.00,NNW,337,0.0,0.0,0,0.00,,,0.09,WUHU216PEETBRO,2013-03-21 03:49:00,
2013-03-20 22:54:00,45.1,0.0,0.00,NNW,337,0.0,0.0,0,0.00,,,0.09,WUHU216PEETBRO,2013-03-21 03:54:00,
2013-03-20 22:59:00,44.9,0.0,0.00,NNW,337,0.0,0.0,0,0.00,,,0.09,WUHU216PEETBRO,2013-03-21 03:59:00,
2013-03-20 23:00:00,44.6,0.0,0.00,NNW,337,0.0,0.0,0,0.00,,,0.09,WUHU216PEETBRO,2013-03-21 04:00:00,
2013-03-20 23:05:00,45.5,0.0,0.00,NNW,337,0.0,0.0,0,0.00,,,0.09,WUHU216PEETBRO,2013-03-21 04:05:00,
2013-03-20 23:10:00,44.5,0.0,0.00,NNW,337,0.0,0.0,0,0.00,,,0.09,WUHU216PEETBRO,2013-03-21 04:10:00,
2013-03-20 23:15:00,44.6,0.0,0.00,NNW,337,0.0,0.0,0,0.00,,,0.09,WUHU216PEETBRO,2013-03-21 04:15:00,
2013-03-20 23:20:00,44.4,0.0,0.00,NNW,337,0.0,0.0,0,0.00,,,0.09,WUHU216PEETBRO,2013-03-21 04:20:00,
2013-03-20 23:21:00,44.1,0.0,0.00,NNW,337,0.0,0.0,0,0.00,,,0.09,WUHU216PEETBRO,2013-03-21 04:21:00,
2013-03-20 23:26:00,44.0,0.0,0.00,NNW,337,0.0,0.0,0,0.00,,,0.09,WUHU216PEETBRO,2013-03-21 04:26:00,
2013-03-20 23:31:00,43.8,0.0,0.00,NNW,337,0.0,0.0,0,0.00,,,0.09,WUHU216PEETBRO,2013-03-21 04:31:00,
2013-03-20 23:36:00,44.0,0.0,0.00,NNW,337,0.0,0.0,0,0.00,,,0.09,WUHU216PEETBRO,2013-03-21 04:36:00,
2013-03-20 23:41:00,44.5,0.0,0.00,NNW,337,0.0,0.0,0,0.00,,,0.09,WUHU216PEETBRO,2013-03-21 04:41:00,
2013-03-20 23:46:00,44.5,0.0,0.00,NNW,337,0.0,0.0,0,0.00,,,0.09,WUHU216PEETBRO,2013-03-21 04:46:00,
2013-03-20 23:51:00,43.3,0.0,0.00,NNW,337,0.0,0.0,0,0.00,,,0.09,WUHU216PEETBRO,2013-03-21 04:51:00,
2013-03-20 23:56:00,43.3,0.0,0.00,NNW,337,0.0,0.0,0,0.00,,,0.09,WUHU216PEETBRO,2013-03-21 04:56:00,